Kaneohe MCBH, HI

3:52 AM HST on June 24, 2017 (GMT -1000)
Kaneohe Bay Marine Corps Air Facility

Weather History for PHNG - August, 2013

Change the Weather History Date:

Wednesday, August 14, 2013

  Actual Average Record
Temperature  
Mean Temperature 80 °F -  
Max Temperature 86 °F 81 °F 86 °F (2013)
Min Temperature 73 °F 73 °F 71 °F (1997)
Cooling Degree Days 14    
Growing Degree Days 30 (Base 50)    
Moisture  
Dew Point 68 °F    
Average Humidity 68    
Maximum Humidity 87    
Minimum Humidity 52    
Precipitation  
Precipitation 0.00 in - - ()
Sea Level Pressure  
Sea Level Pressure 30.00 in    
Wind  
Wind Speed 9 mph (East)    
Max Wind Speed 12 mph    
Max Gust Speed 22 mph    
Visibility 9 miles    
Events Rain    
Averages and records for this station are not official NWS values.
T = Trace of Precipitation, MM = Missing Value Source: NWS Daily Summary

Daily Weather History Graph

Daily Weather History Graph

Search for Another Location

Airport or City:

Trip Planner

Search our weather history database for the weather conditions in past years. The results will help you decide how hot, cold, wet, or windy it might be!

Date:

Astronomy

Aug. 14, 2013 Rise Set
Actual Time 6:09 AM HST 7:01 PM HST
Civil Twilight 5:46 AM HST 7:24 PM HST
Nautical Twilight 5:18 AM HST 7:52 PM HST
Astronomical Twilight 4:50 AM HST 8:19 PM HST
Moon 1:16 PM HST (8/14) No Moon Set
Length of Visible Light 13h 38m
Length of Day
12h 52m
First Quarter, 55% of the Moon is Illuminated
Aug 14
First Quarter
Aug 20
Full
Aug 27
Last Quarter
Sep 5
New
Sep 12
First Quarter

Hourly Weather History & Observations

Time (HST) Temp. Heat Index Dew Point Humidity Pressure Visibility Wind Dir Wind Speed Gust Speed Precip Events Conditions
12:57 AM 73.9 °F - 70.0 °F 87% 30.01 in 10.0 mi East 9.2 mph - N/A   Mostly Cloudy
1:57 AM 77.0 °F - 69.1 °F 76% 29.99 in 10.0 mi East 10.4 mph 16.1 mph N/A   Scattered Clouds
2:46 AM 77.0 °F - 68.0 °F 74% 29.99 in 6.2 mi East 10.4 mph 18.4 mph N/A   Mostly Cloudy
2:57 AM 77.0 °F - 68.0 °F 74% 29.98 in 10.0 mi ENE 8.1 mph 18.4 mph N/A   Mostly Cloudy
3:12 AM 75.2 °F - 68.0 °F 78% 29.99 in 6.2 mi East 8.1 mph - N/A   Mostly Cloudy
3:57 AM 77.5 °F - 69.1 °F 75% 29.98 in 10.0 mi Variable 6.9 mph - N/A   Mostly Cloudy
4:35 AM 75.2 °F - 68.0 °F 78% 29.99 in 6.2 mi East 8.1 mph - N/A   Mostly Cloudy
4:48 AM 75.2 °F - 68.0 °F 78% 29.99 in 6.2 mi East 10.4 mph 17.3 mph N/A   Scattered Clouds
4:57 AM 75.9 °F - 68.0 °F 76% 29.97 in 10.0 mi East 9.2 mph - N/A   Scattered Clouds
5:11 AM 75.2 °F - 68.0 °F 78% 29.98 in 6.2 mi East 10.4 mph 17.3 mph N/A   Mostly Cloudy
5:18 AM 75.2 °F - 68.0 °F 78% 29.99 in 6.2 mi East 9.2 mph 18.4 mph N/A   Scattered Clouds
5:57 AM 75.9 °F - 68.0 °F 76% 29.98 in 10.0 mi East 6.9 mph - N/A   Scattered Clouds
6:57 AM 77.7 °F - 68.0 °F 72% 30.00 in 10.0 mi East 6.9 mph 16.1 mph N/A   Scattered Clouds
7:47 AM 77.0 °F - 68.0 °F 74% 30.02 in 6.2 mi East 10.4 mph 20.7 mph N/A   Mostly Cloudy
7:57 AM 76.8 °F - 68.0 °F 74% 30.01 in 10.0 mi East 10.4 mph 17.3 mph N/A   Mostly Cloudy
8:57 AM 78.8 °F - 68.0 °F 69% 30.02 in 10.0 mi East 9.2 mph 21.9 mph N/A   Mostly Cloudy
9:57 AM 83.1 °F 86.1 °F 68.0 °F 60% 30.03 in 10.0 mi ENE 8.1 mph 19.6 mph N/A   Mostly Cloudy
10:57 AM 84.2 °F 87.3 °F 68.0 °F 58% 30.03 in 10.0 mi ENE 11.5 mph 21.9 mph N/A   Mostly Cloudy
11:15 AM 84.2 °F 87.3 °F 68.0 °F 58% 30.04 in 6.2 mi ENE 11.5 mph 19.6 mph N/A   Scattered Clouds
11:57 AM 84.4 °F 87.6 °F 68.0 °F 58% 30.02 in 10.0 mi ENE 11.5 mph 19.6 mph N/A   Scattered Clouds
12:57 PM 86.2 °F 88.8 °F 66.9 °F 52% 30.00 in 10.0 mi Variable 6.9 mph 19.6 mph N/A   Partly Cloudy
1:57 PM 86.5 °F 90.0 °F 68.0 °F 54% 29.99 in 10.0 mi ENE 10.4 mph 18.4 mph N/A   Mostly Cloudy
2:57 PM 86.2 °F 89.4 °F 68.0 °F 54% 29.98 in 10.0 mi ENE 10.4 mph - N/A   Mostly Cloudy
3:57 PM 84.4 °F 87.1 °F 66.9 °F 56% 29.97 in 10.0 mi East 10.4 mph - N/A   Clear
4:28 PM 84.2 °F 86.6 °F 66.2 °F 55% 29.98 in 6.2 mi ENE 8.1 mph - N/A   Mostly Cloudy
4:53 PM 84.2 °F 86.6 °F 66.2 °F 55% 29.98 in 6.2 mi ENE 10.4 mph - N/A   Scattered Clouds
4:57 PM 83.5 °F 86.0 °F 66.9 °F 57% 29.97 in 10.0 mi ENE 6.9 mph - N/A   Scattered Clouds
5:57 PM 84.9 °F 88.2 °F 68.0 °F 57% 29.97 in 10.0 mi ENE 8.1 mph - N/A   Partly Cloudy
6:57 PM 84.9 °F 87.6 °F 66.9 °F 55% 29.98 in 10.0 mi East 8.1 mph - N/A   Scattered Clouds
7:57 PM 84.0 °F 86.5 °F 66.9 °F 56% 30.01 in 10.0 mi East 8.1 mph - N/A   Scattered Clouds
8:57 PM 77.7 °F - 66.9 °F 69% 30.02 in 10.0 mi East 8.1 mph - N/A   Partly Cloudy
9:57 PM 75.9 °F - 66.9 °F 74% 30.04 in 10.0 mi East 9.2 mph - N/A   Scattered Clouds
10:44 PM 73.4 °F - 66.2 °F 78% 30.06 in 6.2 mi ESE 5.8 mph - 0.00 in Rain Light Rain
10:54 PM 73.4 °F - 66.2 °F 78% 30.06 in 6.2 mi East 5.8 mph - 0.00 in Rain Light Rain
10:57 PM 73.9 °F - 66.9 °F 79% 30.04 in 10.0 mi ENE 5.8 mph - 0.00 in   Overcast
11:57 PM 73.9 °F - 69.1 °F 85% 30.04 in 10.0 mi East 8.1 mph - N/A   Clear